Terug naar catalogus

ONEWEB-0096

ActiefCommunicatiePO
NORAD 45439·PAYLOAD·🇬🇧 United Kingdom

Gelanceerd Mar 21, 2020 vanaf Baikonur Cosmodrome

Loading…

Volgende Passages (komende 24 uur)

TLE

VersSource: CelesTrak SupGP

Epoch: Sep 14, 2026, 12:00 UTC

1 45439C 20020R   26257.50016618 -.00003364  00000+0 -95045-2 0  2577
2 45439  87.8972   3.3103 0001698 105.4564   4.9993 13.11416657    17

Volg ONEWEB-0096 in realtime met AllMySat

Download on the App Store